time_stamp(utc),avg(mph),gust(mph),direction(deg),12m_air_temp(f),sonic_u(cm/s),sonic_v(cm/s),sonic_w(cm/s),pressure,2m_air_temp(f),pyranometer(W/m^2)
"2017-09-24 00:02:42+00",6.5,7.5,,74.5,-209,-212,3,1016.27,72.5,0
"2017-09-24 00:07:42+00",7.1,7.1,,74.5,-222,-202,5,1016.28,72.3,0
"2017-09-24 00:12:42+00",7.0,7.0,,74.4,-251,-172,9,1016.29,72.2,0
"2017-09-24 00:17:42+00",7.6,7.6,,74.4,-242,-207,6,1016.32,72.1,0
"2017-09-24 00:22:42+00",7.4,8.4,,74.3,-250,-189,8,1016.31,72,0
"2017-09-24 00:27:42+00",6.8,6.8,,74.2,-261,-148,9,1016.28,72.1,0
"2017-09-24 00:32:42+00",6.7,7.7,,74.1,-260,-152,9,1016.44,72.1,0
"2017-09-24 00:37:42+00",7.1,7.1,,73.9,-252,-178,10,1016.44,72,0
"2017-09-24 00:42:42+00",6.9,7.9,,73.9,-267,-154,10,1016.33,72.1,0
"2017-09-24 00:47:42+00",7.7,8.7,,73.7,-325,-115,16,1016.36,72.1,0
"2017-09-24 00:52:42+00",7.5,8.5,,73.7,-310,-97,13,1016.44,72.2,0
"2017-09-24 00:57:42+00",8.0,9.0,,73.6,-329,-106,15,1016.42,72.2,0
"2017-09-24 01:02:42+00",8.3,9.3,,73.6,-333,-86,13,1016.45,72.2,0
"2017-09-24 01:07:42+00",7.8,8.8,,73.5,-316,-92,11,1016.44,72.2,0
"2017-09-24 01:12:42+00",6.7,7.7,,73.4,-280,-52,10,1016.45,72.2,0
"2017-09-24 01:17:42+00",7.5,8.5,,73.3,-314,-64,14,1016.41,72.1,0
"2017-09-24 01:22:42+00",8.4,9.4,,73.2,-343,-98,12,1016.43,72.1,0
"2017-09-24 01:27:42+00",8.8,9.8,,73.2,-358,-90,9,1016.44,72,0
"2017-09-24 01:32:42+00",8.4,9.4,,73.2,-347,-72,12,1016.45,72,0
"2017-09-24 01:37:42+00",7.6,8.6,,73.1,-329,-9,11,1016.46,72,0
"2017-09-24 01:42:42+00",7.2,8.2,,73,-310,-1,15,1016.5,71.8,0
"2017-09-24 01:47:42+00",7.1,8.1,,73,-299,-32,10,1016.47,71.8,0
"2017-09-24 01:52:42+00",6.1,7.1,,73.1,-262,-16,19,1016.49,71.7,0
"2017-09-24 01:57:42+00",7.9,8.9,,73.3,-354,35,17,1016.55,71.6,0
"2017-09-24 02:02:42+00",7.0,8.0,,73.4,-303,43,16,1016.52,71.7,0
"2017-09-24 02:07:42+00",6.2,7.2,,73.5,-267,51,14,1016.47,71.7,0
"2017-09-24 02:12:42+00",5.9,6.9,,73.7,-259,41,13,1016.55,71.7,0
"2017-09-24 02:17:42+00",5.9,6.9,,73.3,-248,93,17,1016.51,71.6,0
"2017-09-24 02:22:42+00",5.8,5.8,,73.1,-249,78,12,1016.55,71.6,0
"2017-09-24 02:27:42+00",6.1,7.1,,72.9,-259,67,9,1016.5,71.6,0
"2017-09-24 02:32:42+00",5.9,6.9,,72.9,-245,84,20,1016.56,71.5,0
"2017-09-24 02:37:42+00",5.5,6.5,,73,-233,62,15,1016.48,71.5,0
"2017-09-24 02:42:42+00",5.9,6.9,,72.9,-249,71,20,1016.46,71.6,0
"2017-09-24 02:47:42+00",5.5,6.5,,72.9,-231,63,12,1016.47,71.6,0
"2017-09-24 02:52:42+00",5.2,5.2,,72.8,-224,45,15,1016.48,71.6,0
"2017-09-24 02:57:42+00",5.2,5.2,,72.7,-220,67,14,1016.5,71.4,0
"2017-09-24 03:02:42+00",5.2,6.2,,72.7,-222,63,15,1016.57,71.3,0
"2017-09-24 03:07:42+00",6.2,6.2,,72.7,-263,66,21,1016.51,71.2,0
"2017-09-24 03:12:42+00",6.6,7.6,,72.7,-280,85,27,1016.48,71.2,0
"2017-09-24 03:17:42+00",5.5,6.5,,72.5,-231,72,19,1016.45,71.3,0
"2017-09-24 03:22:42+00",5.2,6.2,,72.3,-218,55,10,1016.47,71.2,0
"2017-09-24 03:27:42+00",5.2,5.2,,72.2,-210,60,19,1016.38,71.2,0
"2017-09-24 03:32:42+00",6.8,6.8,,72.4,-278,116,17,1016.37,71.1,0
"2017-09-24 03:37:42+00",5.5,5.5,,72.6,-230,80,20,1016.26,71.1,0
"2017-09-24 03:42:42+00",6.5,7.5,,72.5,-262,113,16,1016.17,71,0
"2017-09-24 03:47:42+00",5.6,6.6,,72.6,-235,85,21,1016.09,71.1,0
"2017-09-24 03:52:42+00",5.5,6.5,,72.5,-227,73,16,1016.2,71,0
"2017-09-24 03:57:42+00",5.7,5.7,,72.5,-233,97,17,1016.19,70.9,0
"2017-09-24 04:02:42+00",6.8,7.8,,72.5,-278,120,20,1016.13,70.8,0
"2017-09-24 04:07:42+00",6.7,7.7,,72.5,-277,110,17,1016.02,70.7,0
"2017-09-24 04:12:42+00",6.8,7.8,,72.6,-286,95,15,1016.09,70.7,0
"2017-09-24 04:17:42+00",6.9,7.9,,72.5,-297,99,22,1016.02,70.9,0
"2017-09-24 04:22:42+00",7.2,8.2,,72.3,-298,122,17,1016.06,70.9,0
"2017-09-24 04:27:42+00",7.9,8.9,,72.3,-315,153,22,1016.05,70.9,0
"2017-09-24 04:32:42+00",7.4,8.4,,72.1,-300,132,17,1016.03,70.9,0
"2017-09-24 04:37:42+00",6.5,7.5,,72,-280,81,17,1016.07,71,0
"2017-09-24 04:42:42+00",7.8,8.8,,72.1,-323,133,16,1016.04,70.9,0
"2017-09-24 04:47:42+00",8.3,9.3,,72.2,-337,155,25,1015.9,70.8,0
"2017-09-24 04:52:42+00",8.6,9.6,,72.3,-347,166,23,1015.92,70.9,0
"2017-09-24 04:57:42+00",8.8,9.8,,72.3,-352,173,31,1015.99,70.9,0
"2017-09-24 05:02:42+00",9.5,10.5,,72,-361,222,18,1015.89,70.9,0
"2017-09-24 05:07:42+00",8.5,9.5,,71.5,-317,206,26,1015.9,70.8,0
"2017-09-24 05:12:42+00",8.3,10.3,,71,-308,207,22,1015.88,70.6,0
"2017-09-24 05:17:42+00",8.2,9.2,,70.9,-301,210,26,1015.87,70.4,0
"2017-09-24 05:22:42+00",8.0,9.0,,70.8,-280,216,25,1015.89,70.3,0
"2017-09-24 05:27:42+00",8.6,9.6,,70.8,-315,222,27,1015.98,70.2,0
"2017-09-24 05:32:42+00",8.3,9.3,,70.7,-280,234,22,1015.92,70.1,0
"2017-09-24 05:37:42+00",9.1,10.1,,70.6,-320,249,27,1015.84,69.9,0
"2017-09-24 05:42:42+00",8.2,9.2,,70.6,-296,207,29,1015.87,69.9,0
"2017-09-24 05:47:42+00",7.5,8.5,,70.7,-277,183,25,1015.79,69.8,0
"2017-09-24 05:52:42+00",7.3,8.3,,70.6,-272,177,25,1015.84,69.7,0
"2017-09-24 05:57:42+00",6.6,6.6,,70.5,-251,158,25,1015.84,69.6,0
"2017-09-24 06:02:42+00",7.0,8.0,,70.5,-258,179,16,1015.92,69.5,0
"2017-09-24 06:07:42+00",7.7,8.7,,70.6,-258,215,28,1015.9,69.5,0
"2017-09-24 06:12:42+00",6.9,7.9,,70.6,-246,184,23,1015.91,69.5,0
"2017-09-24 06:17:42+00",7.2,8.2,,70.5,-228,221,25,1015.88,69.4,0
"2017-09-24 06:22:42+00",7.7,8.7,,70.6,-279,201,17,1015.9,69.5,0
"2017-09-24 06:27:42+00",7.0,8.0,,70.6,-250,177,16,1015.95,69.5,0
"2017-09-24 06:32:42+00",8.0,8.0,,70.4,-296,191,18,1016.04,69.4,0
"2017-09-24 06:37:42+00",7.6,8.6,,70.2,-280,184,19,1015.94,69.3,0
"2017-09-24 06:42:42+00",6.5,7.5,,70.1,-221,181,29,1016,69.3,0
"2017-09-24 06:47:42+00",6.4,6.4,,69.8,-253,134,20,1015.89,69.1,0
"2017-09-24 06:52:42+00",5.9,5.9,,69.7,-229,124,19,1015.97,69,0
"2017-09-24 06:57:42+00",5.9,6.9,,69.6,-234,119,18,1015.98,68.8,0
"2017-09-24 07:02:42+00",6.3,6.3,,69.7,-244,140,25,1015.87,68.7,0
"2017-09-24 07:07:42+00",7.2,8.2,,69.6,-246,201,21,1015.85,68.6,0
"2017-09-24 07:12:42+00",6.2,6.2,,69.6,-228,152,24,1015.8,68.6,0
"2017-09-24 07:17:42+00",6.1,7.1,,69.7,-214,148,21,1015.82,68.6,0
"2017-09-24 07:22:42+00",6.5,7.5,,69.7,-207,179,18,1015.93,68.6,0
"2017-09-24 07:27:42+00",6.9,7.9,,69.8,-218,202,23,1015.82,68.6,0
"2017-09-24 07:32:42+00",7.0,8.0,,69.6,-189,237,17,1015.8,68.4,0
"2017-09-24 07:37:42+00",7.3,8.3,,69.2,-176,267,15,1015.9,68.1,0
"2017-09-24 07:42:42+00",7.0,8.0,,68.7,-163,254,19,1015.78,67.8,0
"2017-09-24 07:47:42+00",6.2,6.2,,68.4,-110,240,17,1015.82,67.6,0
"2017-09-24 07:52:42+00",5.4,6.4,,68.3,-58,216,4,1015.72,67.3,0
"2017-09-24 07:57:42+00",7.0,7.0,,68.5,-26,296,8,1015.68,67.1,0
"2017-09-24 08:02:42+00",7.8,8.8,,68.8,10,327,5,1015.66,66.6,0
"2017-09-24 08:07:42+00",8.7,9.7,,69.1,42,369,6,1015.7,66.1,0
"2017-09-24 08:12:42+00",9.4,10.4,,69.3,68,394,6,1015.69,65.9,0
"2017-09-24 08:17:42+00",8.9,9.9,,69.3,96,358,-3,1015.76,66,0
"2017-09-24 08:22:42+00",8.4,9.4,,68.9,95,335,3,1015.86,66.2,0
"2017-09-24 08:27:42+00",8.5,8.5,,68.6,145,323,-2,1015.92,66.1,0
"2017-09-24 08:32:42+00",7.7,8.7,,68.6,192,245,5,1016.13,66,0
"2017-09-24 08:37:42+00",8.6,9.6,,68.7,203,296,6,1016.15,66.1,0
"2017-09-24 08:42:42+00",9.4,10.4,,68.8,231,320,4,1016.26,66,0
"2017-09-24 08:47:42+00",8.5,9.5,,68.4,171,314,6,1016.24,66.1,0
"2017-09-24 08:52:42+00",7.7,8.7,,68.1,150,287,2,1016.23,66,0
"2017-09-24 08:57:42+00",7.8,7.8,,68.1,160,286,4,1016.18,65.9,0
"2017-09-24 09:02:42+00",8.2,9.2,,68.4,175,296,5,1016.15,65.8,0
"2017-09-24 09:07:42+00",8.6,9.6,,68.5,159,329,3,1016.13,65.8,0
"2017-09-24 09:12:42+00",9.1,10.1,,68.5,160,347,4,1016.24,65.8,0
"2017-09-24 09:17:42+00",9.1,10.1,,68.5,151,348,1,1016.28,65.8,0
"2017-09-24 09:22:42+00",8.2,9.2,,68.5,107,312,-1,1016.32,65.8,0
"2017-09-24 09:27:42+00",9.0,10.0,,68.6,111,344,-1,1016.38,65.8,0
"2017-09-24 09:32:42+00",10.1,10.1,,68.9,142,379,-3,1016.37,65.8,0
"2017-09-24 09:37:42+00",9.0,9.0,,69.3,134,341,-3,1016.36,66.1,0
"2017-09-24 09:42:42+00",9.2,9.2,,69.3,124,338,-2,1016.46,66.2,0
"2017-09-24 09:47:42+00",9.2,9.2,,69.3,143,348,0,1016.36,66.1,0
"2017-09-24 09:52:42+00",8.9,8.9,,69.3,126,329,2,1016.29,66,0
"2017-09-24 09:57:42+00",7.7,7.7,,69,36,325,8,1016.32,65.8,0
"2017-09-24 10:02:42+00",6.7,7.7,,68.2,-54,281,16,1016.49,65.6,0
"2017-09-24 10:07:42+00",7.9,8.9,,67.4,-48,347,14,1016.41,65.4,0
"2017-09-24 10:12:42+00",7.7,8.7,,67.4,11,325,6,1016.52,65.1,0
"2017-09-24 10:17:42+00",6.5,7.5,,67.6,72,256,3,1016.61,64.9,0
"2017-09-24 10:22:42+00",6.7,6.7,,67.9,62,268,2,1016.69,64.7,0
"2017-09-24 10:27:42+00",7.3,8.3,,68,33,302,6,1016.69,64.6,0
"2017-09-24 10:32:42+00",7.4,7.4,,68.2,30,309,6,1016.77,64.5,0
"2017-09-24 10:37:42+00",7.1,8.1,,68,-34,302,15,1016.86,64.4,0
"2017-09-24 10:42:42+00",7.0,7.0,,67.3,-73,289,16,1016.86,64.4,0
"2017-09-24 10:47:42+00",6.8,6.8,,66.9,-94,278,22,1016.99,64.4,0
"2017-09-24 10:52:42+00",5.9,6.9,,66.5,-53,246,9,1017.05,64.3,0
"2017-09-24 10:57:42+00",6.3,7.3,,66.3,-13,264,10,1016.98,64.2,0
"2017-09-24 11:02:42+00",6.1,7.1,,66.3,-3,254,8,1016.94,64.1,0
"2017-09-24 11:07:42+00",6.5,7.5,,66.6,19,271,4,1017.05,64.1,0
"2017-09-24 11:12:42+00",6.5,7.5,,67,19,267,1,1017.04,64.1,0
"2017-09-24 11:17:42+00",7.5,7.5,,67.1,3,312,9,1017.05,64.3,0.3
"2017-09-24 11:22:42+00",8.1,8.1,,67.5,-6,343,17,1017.03,64.5,3
"2017-09-24 11:27:42+00",7.7,8.7,,67.7,-8,326,12,1016.97,64.9,10.3
"2017-09-24 11:32:42+00",4.8,5.8,,67.7,-68,184,24,1017.04,65.6,17.7
"2017-09-24 11:37:42+00",5.8,6.8,,67.2,-136,213,23,1017.07,66.4,26.1
"2017-09-24 11:42:42+00",6.0,7.0,,66.9,-123,223,24,1017.13,67.1,34.9
"2017-09-24 11:47:42+00",6.3,7.3,,67,-117,239,14,1017.11,67.6,46.1
"2017-09-24 11:52:42+00",6.1,7.1,,67.3,-104,239,16,1017.13,68.2,56
"2017-09-24 11:57:42+00",4.9,5.9,,67.6,-60,186,9,1017.03,68.9,63
"2017-09-24 12:02:42+00",5.1,6.1,,68.1,-50,200,15,1017.12,69.6,74
"2017-09-24 12:07:42+00",5.9,7.9,,68.7,-46,243,9,1017.03,70.4,83.3
"2017-09-24 12:12:42+00",5.5,6.5,,69,-48,225,11,1017.16,71.2,89.9
"2017-09-24 12:17:42+00",5.5,6.5,,69.3,-49,222,10,1017.14,71.9,101.8
"2017-09-24 12:22:42+00",6.1,7.1,,69.7,-78,243,4,1017.17,72.5,112.7
"2017-09-24 12:27:42+00",5.0,6.0,,70,-39,202,16,1017.11,73.1,120.6
"2017-09-24 12:32:42+00",5.5,7.5,,70.4,-10,218,30,1017.16,73.6,130.8
"2017-09-24 12:37:42+00",9.5,10.5,,71.2,54,403,8,1017.16,74,143.6
"2017-09-24 12:42:42+00",7.6,9.6,,71.7,102,292,6,1017.18,73.9,150.9
"2017-09-24 12:47:42+00",8.0,10.0,,72.1,46,337,12,1017.23,74,162.3
"2017-09-24 12:52:42+00",8.3,9.3,,72.1,79,340,3,1017.26,74,171.3
"2017-09-24 12:57:42+00",9.8,11.8,,72.3,6,420,22,1017.36,74.1,176.6
"2017-09-24 13:02:42+00",10.7,11.7,,72.2,133,425,-9,1017.41,74.2,188.1
"2017-09-24 13:07:42+00",9.3,10.3,,72.4,86,390,-9,1017.43,74.3,195.5
"2017-09-24 13:12:42+00",7.4,9.4,,72.7,61,311,25,1017.41,74.6,204.5
"2017-09-24 13:17:42+00",8.0,10.0,,72.9,129,299,0,1017.37,75,211.4
"2017-09-24 13:22:42+00",9.0,10.0,,73.1,81,372,0,1017.39,75.2,217
"2017-09-24 13:27:42+00",8.0,11.0,,73.6,211,238,13,1017.44,75.9,224
"2017-09-24 13:32:42+00",9.4,10.4,,74.1,168,358,13,1017.48,76.3,232.7
"2017-09-24 13:37:42+00",10.6,12.6,,74.4,225,389,0,1017.45,76.8,228.4
"2017-09-24 13:42:42+00",12.0,14.0,,74.8,339,375,-15,1017.36,77.2,248
"2017-09-24 13:47:42+00",10.2,11.2,,75.3,311,289,7,1017.41,77.8,239.2
"2017-09-24 13:52:42+00",13.4,15.4,,75.2,450,356,21,1017.31,78,259
"2017-09-24 13:57:42+00",14.2,17.2,,75.3,399,435,1,1017.27,77.9,265
"2017-09-24 14:02:42+00",13.9,14.9,,75.9,342,482,21,1017.3,78.4,272.9
"2017-09-24 14:07:42+00",14.9,15.9,,75.8,441,438,-5,1017.27,78.5,280.9
"2017-09-24 14:12:42+00",12.7,15.7,,75.9,431,343,41,1017.38,78.7,284.5
"2017-09-24 14:17:42+00",12.4,14.4,,76.1,449,309,26,1017.28,78.9,292.4
"2017-09-24 14:22:42+00",14.1,15.1,,75.9,525,340,16,1017.27,78.9,298.3
"2017-09-24 14:27:42+00",12.3,15.3,,76,444,299,39,1017.27,79,304.2
"2017-09-24 14:32:42+00",12.8,13.8,,76,480,299,20,1017.33,79.2,310.1
"2017-09-24 14:37:42+00",13.1,15.1,,76,453,343,11,1017.29,79.3,316.9
"2017-09-24 14:42:42+00",13.0,15.0,,76.4,411,363,22,1017.23,79.6,326.7
"2017-09-24 14:47:42+00",13.5,14.5,,76.5,395,405,-6,1017.23,79.5,334.1
"2017-09-24 14:52:42+00",15.0,16.0,,76.5,501,411,24,1017.21,79.6,339.8
"2017-09-24 14:57:42+00",15.0,16.0,,76.6,549,373,32,1017.06,79.6,345.6
"2017-09-24 15:02:42+00",15.0,18.0,,77,489,413,23,1017.14,80,350
"2017-09-24 15:07:42+00",12.8,14.8,,77,371,386,43,1017.16,80.1,360.5
"2017-09-24 15:12:42+00",13.4,15.4,,77.3,424,375,43,1017.06,80.6,366.7
"2017-09-24 15:17:42+00",13.3,16.3,,77.4,407,384,28,1016.99,80.5,373.6
"2017-09-24 15:22:42+00",14.5,15.5,,77,516,374,22,1017.17,80.3,377.5
"2017-09-24 15:27:42+00",14.1,15.1,,77,421,402,10,1017.1,80.3,381.3
"2017-09-24 15:32:42+00",14.0,16.0,,77,441,391,2,1017.15,80.3,387.8
"2017-09-24 15:37:42+00",12.7,14.7,,77.2,424,338,2,1017.22,80.3,392.3
"2017-09-24 15:42:42+00",11.6,13.6,,77.3,413,293,15,1017.22,80.4,394.4
"2017-09-24 15:47:42+00",12.6,14.6,,77.2,326,411,12,1017.18,80.5,403.1
"2017-09-24 15:52:42+00",12.6,13.6,,77.3,381,358,3,1017.12,80.7,404.4
"2017-09-24 15:57:42+00",11.5,13.5,,77.5,393,299,-2,1017.12,80.7,406.5
"2017-09-24 16:02:42+00",12.7,14.7,,77.6,459,321,11,1017.12,80.9,409.4
"2017-09-24 16:07:42+00",12.2,13.2,,77.8,460,278,32,1017.04,80.9,412
"2017-09-24 16:12:42+00",12.6,13.6,,77.8,458,318,22,1017.02,81,416.6
"2017-09-24 16:17:42+00",12.1,14.1,,77.7,388,337,26,1017.11,81,360.4
"2017-09-24 16:22:42+00",13.0,14.0,,77.7,448,344,24,1017.18,80.9,420.3
"2017-09-24 16:27:42+00",12.5,13.5,,77.8,453,311,23,1017.16,81,421.6
"2017-09-24 16:32:42+00",12.5,13.5,,77.9,438,327,32,1017.01,81.1,422.3
"2017-09-24 16:37:42+00",12.8,14.8,,77.9,459,325,26,1017.05,81,427.1
"2017-09-24 16:42:42+00",13.5,14.5,,77.9,475,349,11,1017,81,427.9
"2017-09-24 16:47:42+00",13.0,15.0,,77.9,435,357,4,1016.98,81.1,429.1
"2017-09-24 16:52:42+00",11.7,13.7,,78,410,296,37,1016.91,81.3,427.6
"2017-09-24 16:57:42+00",12.4,13.4,,78.3,451,307,10,1016.86,81.7,426.5
"2017-09-24 17:02:42+00",13.8,15.8,,78.1,469,372,22,1016.88,81.5,426.1
"2017-09-24 17:07:42+00",12.3,14.3,,78,415,332,23,1016.8,81.3,427.3
"2017-09-24 17:12:42+00",11.6,12.6,,78.1,415,281,19,1016.89,81.3,424.8
"2017-09-24 17:17:42+00",12.5,13.5,,77.9,383,352,6,1016.78,81.2,421.9
"2017-09-24 17:22:42+00",12.4,13.4,,77.8,383,341,11,1016.84,81.3,421.5
"2017-09-24 17:27:42+00",10.8,13.8,,78.2,405,244,20,1016.74,81.7,415.5
"2017-09-24 17:32:42+00",10.7,12.7,,78.3,409,229,17,1016.83,81.8,412
"2017-09-24 17:37:42+00",11.0,12.0,,78.3,458,182,14,1016.8,81.8,411.3
"2017-09-24 17:42:42+00",10.5,12.5,,78.3,402,226,6,1016.78,82,406.8
"2017-09-24 17:47:42+00",9.5,10.5,,78.3,403,118,34,1016.77,82,403.1
"2017-09-24 17:52:42+00",10.6,12.6,,78.2,457,123,22,1016.66,82.3,400.3
"2017-09-24 17:57:42+00",9.8,10.8,,78.3,402,164,15,1016.72,82.3,396.9
"2017-09-24 18:02:42+00",10.9,11.9,,78.2,483,44,23,1016.84,82.3,390.3
"2017-09-24 18:07:42+00",10.8,11.8,,77.7,475,61,11,1016.74,82,386.9
"2017-09-24 18:12:42+00",11.5,12.5,,77.5,510,69,9,1016.7,81.7,384.9
"2017-09-24 18:17:42+00",11.3,12.3,,77.5,507,40,14,1016.64,81.5,377.9
"2017-09-24 18:22:42+00",10.2,11.2,,77.5,448,13,50,1016.6,81.3,375.2
"2017-09-24 18:27:42+00",11.6,12.6,,77.6,512,60,22,1016.62,81.7,366.1
"2017-09-24 18:32:42+00",10.6,12.6,,77.4,471,20,25,1016.62,81.2,361.2
"2017-09-24 18:37:42+00",10.3,12.3,,77.1,461,-10,34,1016.64,80.6,357.2
"2017-09-24 18:42:42+00",11.4,12.4,,76.7,508,8,-1,1016.72,80.1,352.3
"2017-09-24 18:47:42+00",11.3,12.3,,76.6,502,-32,10,1016.57,79.6,346.5
"2017-09-24 18:52:42+00",10.6,12.6,,76.7,477,-14,41,1016.68,79.7,340.3
"2017-09-24 18:57:42+00",10.2,11.2,,76.3,458,-21,42,1016.69,79.8,327.3
"2017-09-24 19:02:42+00",11.5,12.5,,76,515,-24,11,1016.56,79.1,325.1
"2017-09-24 19:07:42+00",10.6,11.6,,75.8,472,24,4,1016.5,79,318
"2017-09-24 19:12:42+00",10.5,12.5,,75.8,466,4,11,1016.56,78.9,312
"2017-09-24 19:17:42+00",9.8,10.8,,76,436,74,21,1016.49,79.3,303.7
"2017-09-24 19:22:42+00",11.1,12.1,,76,497,18,25,1016.54,79.7,294.5
"2017-09-24 19:27:42+00",11.2,12.2,,75.9,496,49,29,1016.49,79.5,290.1
"2017-09-24 19:32:42+00",10.3,12.3,,75.8,469,19,46,1016.41,79.2,281.7
"2017-09-24 19:37:42+00",10.8,11.8,,75.7,480,29,25,1016.35,78.8,273.8
"2017-09-24 19:42:42+00",10.4,11.4,,75.7,457,42,10,1016.4,79,267.7
"2017-09-24 19:47:42+00",10.0,12.0,,75.7,445,-13,48,1016.38,78.8,261.1
"2017-09-24 19:52:42+00",10.9,11.9,,75.4,475,82,1,1016.25,78.9,252.4
"2017-09-24 19:57:42+00",9.2,10.2,,75.2,403,80,20,1016.17,78.9,247
"2017-09-24 20:02:42+00",9.7,11.7,,75.4,424,125,33,1016.08,79.1,238.1
"2017-09-24 20:07:42+00",9.7,10.7,,75.2,424,87,16,1016.09,78.9,230.1
"2017-09-24 20:12:42+00",9.7,10.7,,75.4,425,121,22,1016.13,79,224.1
"2017-09-24 20:17:42+00",8.5,9.5,,75.2,432,156,125,1016.1,78.9,218.5
"2017-09-24 20:22:42+00",9.8,10.8,,75.1,431,49,2,1016.11,78.8,207.4
"2017-09-24 20:27:42+00",8.9,9.9,,75.1,388,70,16,1016.11,78.6,200.7
"2017-09-24 20:32:42+00",7.7,8.7,,75.1,333,64,6,1016.19,78.1,195.9
"2017-09-24 20:37:42+00",7.8,8.8,,75.1,344,-6,13,1016.1,78,184.8
"2017-09-24 20:42:42+00",7.3,8.3,,75.3,320,33,1,1016.14,77.9,176.1
"2017-09-24 20:47:42+00",7.1,8.1,,75.4,309,25,1,1016.01,77.9,165.6
"2017-09-24 20:52:42+00",6.2,7.2,,75.4,264,35,20,1016.05,77.8,156
"2017-09-24 20:57:42+00",5.7,7.7,,75.6,232,76,37,1016.06,78,146.9
"2017-09-24 21:02:42+00",5.6,6.6,,75.7,232,64,38,1015.98,78.3,139.7
"2017-09-24 21:07:42+00",7.1,8.1,,75.7,308,28,9,1015.97,78.2,128.8
"2017-09-24 21:12:42+00",5.9,6.9,,75.7,257,-28,7,1015.94,77.9,119
"2017-09-24 21:17:42+00",5.8,6.8,,75.6,249,-7,8,1015.89,77.5,111.4
"2017-09-24 21:22:42+00",6.6,7.6,,75.7,276,-74,-13,1015.99,77.4,100.7
"2017-09-24 21:27:42+00",7.0,8.0,,75.6,290,-86,-3,1015.92,77,85.2
"2017-09-24 21:32:42+00",7.2,8.2,,75.1,285,-126,34,1015.93,76.8,77.6
"2017-09-24 21:37:42+00",7.6,8.6,,74.6,291,-159,-2,1016,76.2,67.7
"2017-09-24 21:42:42+00",7.9,8.9,,74.3,295,-172,-1,1016.05,76,59.4
"2017-09-24 21:47:42+00",8.7,9.7,,73.8,348,-161,-9,1016.07,75.6,50.9
"2017-09-24 21:52:42+00",8.9,8.9,,73.5,333,-190,-13,1016.08,75.1,39.8
"2017-09-24 21:57:42+00",8.0,9.0,,73.4,324,-130,-2,1016.05,74.8,30.9
"2017-09-24 22:02:42+00",7.3,8.3,,73.3,269,-164,-6,1016.14,74.7,22.1
"2017-09-24 22:07:42+00",7.6,8.6,,73.3,256,-201,-7,1016.17,74.6,13.2
"2017-09-24 22:12:42+00",7.7,8.7,,73.2,275,-177,2,1016.17,74.3,5.3
"2017-09-24 22:17:42+00",7.9,8.9,,73.1,281,-189,-9,1016.15,74.2,1.8
"2017-09-24 22:22:42+00",7.0,7.0,,72.9,280,-127,0,1016.19,73.9,0
"2017-09-24 22:27:42+00",4.8,5.8,,72.9,184,-102,26,1016.15,73.7,0
"2017-09-24 22:32:42+00",5.0,6.0,,72.9,184,-106,2,1016.17,73.6,0
"2017-09-24 22:37:42+00",4.8,4.8,,72.8,177,-100,4,1016.22,73.4,0
"2017-09-24 22:42:42+00",4.5,5.5,,72.8,143,-129,0,1016.26,73.2,0
"2017-09-24 22:47:42+00",4.5,4.5,,72.7,143,-122,2,1016.25,73,0
"2017-09-24 22:52:42+00",3.7,4.7,,72.6,111,-100,-3,1016.25,72.8,0
"2017-09-24 22:57:42+00",3.0,3.0,,72.5,77,-92,-3,1016.26,72.6,0
"2017-09-24 23:02:42+00",3.3,4.3,,72.5,89,-102,-4,1016.36,72.4,0
"2017-09-24 23:07:42+00",2.4,2.4,,72.4,56,-75,0,1016.43,72.2,0
"2017-09-24 23:12:42+00",3.2,4.2,,72.4,93,-88,-2,1016.27,72,0
"2017-09-24 23:17:42+00",4.3,4.3,,72.3,137,-115,-1,1016.38,71.9,0
"2017-09-24 23:22:42+00",4.1,4.1,,72.4,120,-118,0,1016.45,71.8,0
"2017-09-24 23:27:42+00",3.4,3.4,,72.4,73,-114,-2,1016.44,71.6,0
"2017-09-24 23:32:42+00",3.8,3.8,,72.3,65,-146,-5,1016.45,71.5,0
"2017-09-24 23:37:42+00",5.2,5.2,,72.3,102,-196,-4,1016.33,71.3,0
"2017-09-24 23:42:42+00",4.8,4.8,,72.2,103,-171,-1,1016.73,71.3,0
"2017-09-24 23:47:42+00",4.3,4.3,,72.2,109,-144,-2,1016.88,71.3,0
"2017-09-24 23:52:42+00",5.2,5.2,,72.1,136,-174,-2,1016.74,71.2,0
"2017-09-24 23:57:42+00",5.1,6.1,,72.1,115,-180,-1,1016.73,71.1,0
